Location: Unspecified
(0.0000°N, 0.0000°E)
Time: 09:40:17
(UTC+00:00)

SRMSAT - Pass Details

Date: 28 March 2019
Orbit: 849 x 865 km, 20.0° (Epoch: 26 April)

Event Time Altitude Azimuth Distance (km) Brightness Sun altitude
Exits shadow 03:58:52 10° 1° (N) 2,437 ? -31.6°
Drops below altitude 10° 03:59:19 10° 6° (N) 2,463 ? -31.4°
Sets 04:04:31 0° 44° (NE) 3,404 ? -30.1°
